"read_dt","SO2 (ppb)","flags","PMT voltage (V)","lamp voltage (V)","lamp intensity (Hz)","internal temp (C)","react chamber temp (C)","sample flow (l/min)","pres (mmHg)","SO2 bkg (ppb)","SO2 coefficient"
2014-10-28 00:00:00,1774E-3,5C000000,-0724,0826,12311,027.2,045.4,0.478,737.1,01.18,0.508
2014-10-28 00:01:00,1809E-3,5C000000,-0724,0826,12182,027.2,045.4,0.479,737.1,01.18,0.508
2014-10-28 00:02:00,1839E-3,5C000000,-0724,0826,12171,027.2,045.4,0.479,737.1,01.18,0.508
2014-10-28 00:03:00,1835E-3,5C000000,-0724,0828,12369,027.2,045.4,0.478,737.0,01.18,0.508
2014-10-28 00:04:00,1917E-3,5C000000,-0724,0827,12239,027.2,045.4,0.478,737.0,01.18,0.508
2014-10-28 00:05:00,1686E-3,5C000000,-0724,0825,12337,027.2,045.4,0.479,736.9,01.18,0.508
2014-10-28 00:06:00,1833E-3,5C000000,-0724,0826,12118,027.2,045.4,0.479,736.9,01.18,0.508
2014-10-28 00:07:00,1757E-3,5C000000,-0724,0826,12405,027.2,045.4,0.478,736.9,01.18,0.508
2014-10-28 00:08:00,1777E-3,5C000000,-0724,0826,12184,027.2,045.4,0.479,736.8,01.18,0.508
2014-10-28 00:09:00,1785E-3,5C000000,-0724,0826,12150,027.2,045.4,0.479,736.8,01.18,0.508
2014-10-28 00:10:00,1836E-3,5C000000,-0724,0827,12278,027.2,045.4,0.478,736.8,01.18,0.508
2014-10-28 00:11:00,1745E-3,5C000000,-0724,0826,12432,027.2,045.4,0.479,736.8,01.18,0.508
2014-10-28 00:12:00,1882E-3,5C000000,-0724,0826,11960,027.2,045.4,0.479,736.7,01.18,0.508
2014-10-28 00:13:00,1755E-3,5C000000,-0724,0827,12275,027.2,045.4,0.478,736.7,01.18,0.508
2014-10-28 00:14:00,1864E-3,5C000000,-0724,0827,12389,027.2,045.4,0.479,736.7,01.18,0.508
2014-10-28 00:15:00,1896E-3,5C000000,-0724,0827,12339,027.2,045.4,0.479,736.6,01.18,0.508
2014-10-28 00:16:00,1734E-3,5C000000,-0724,0827,12498,027.2,045.4,0.478,736.5,01.18,0.508
2014-10-28 00:17:00,1783E-3,5C000000,-0724,0825,12189,027.2,045.4,0.478,736.5,01.18,0.508
2014-10-28 00:18:00,1894E-3,5C000000,-0724,0827,12242,027.2,045.4,0.479,736.4,01.18,0.508
2014-10-28 00:19:00,1645E-3,5C000000,-0724,0825,12331,027.2,045.4,0.478,736.4,01.18,0.508
2014-10-28 00:20:00,1800E-3,5C000000,-0724,0827,12292,027.2,045.4,0.478,736.3,01.18,0.508
2014-10-28 00:21:00,1778E-3,5C000000,-0724,0825,12140,027.2,045.4,0.479,736.3,01.18,0.508
2014-10-28 00:22:00,1711E-3,5C000000,-0724,0826,12188,027.2,045.4,0.478,736.3,01.18,0.508
2014-10-28 00:23:00,1759E-3,5C000000,-0724,0826,12498,027.2,045.4,0.478,736.2,01.18,0.508
2014-10-28 00:24:00,1765E-3,5C000000,-0724,0826,12139,027.2,045.4,0.478,736.0,01.18,0.508
2014-10-28 00:25:00,1778E-3,5C000000,-0724,0827,12176,027.2,045.4,0.478,736.1,01.18,0.508
2014-10-28 00:26:00,1898E-3,5C000000,-0724,0826,12301,027.2,045.4,0.478,736.2,01.18,0.508
2014-10-28 00:27:00,1878E-3,5C000000,-0724,0827,12146,027.1,045.4,0.479,736.3,01.18,0.508
2014-10-28 00:28:00,1797E-3,5C000000,-0724,0827,12196,027.2,045.4,0.478,736.2,01.18,0.508
2014-10-28 00:29:00,1815E-3,5C000000,-0724,0827,12304,027.2,045.4,0.478,736.2,01.18,0.508
2014-10-28 00:30:00,1724E-3,5C000000,-0724,0828,12234,027.2,045.4,0.479,736.2,01.18,0.508
2014-10-28 00:31:00,1781E-3,5C000000,-0724,0827,12320,027.2,045.4,0.478,736.1,01.18,0.508
2014-10-28 00:32:00,1773E-3,5C000000,-0724,0827,12071,027.2,045.4,0.478,736.2,01.18,0.508
2014-10-28 00:33:00,1764E-3,5C000000,-0724,0827,12221,027.2,045.4,0.479,736.1,01.18,0.508
2014-10-28 00:34:00,1873E-3,5C000000,-0724,0826,12184,027.2,045.5,0.478,736.2,01.18,0.508
2014-10-28 00:35:00,1776E-3,5C000000,-0724,0826,12298,027.2,045.4,0.478,736.2,01.18,0.508
2014-10-28 00:36:00,1813E-3,5C000000,-0724,0826,12225,027.2,045.4,0.479,736.2,01.18,0.508
2014-10-28 00:37:00,1817E-3,5C000000,-0724,0828,12298,027.3,045.4,0.478,736.2,01.18,0.508
2014-10-28 00:38:00,1826E-3,5C000000,-0724,0826,12244,027.3,045.4,0.478,736.2,01.18,0.508
2014-10-28 00:39:00,1783E-3,5C000000,-0724,0826,12153,027.3,045.4,0.479,736.2,01.18,0.508
2014-10-28 00:40:00,1888E-3,5C000000,-0724,0825,12223,027.4,045.4,0.478,736.3,01.18,0.508
2014-10-28 00:41:00,1861E-3,5C000000,-0724,0827,12283,027.4,045.4,0.478,736.3,01.18,0.508
2014-10-28 00:42:00,1680E-3,5C000000,-0724,0827,12405,027.4,045.4,0.479,736.3,01.18,0.508
2014-10-28 00:43:00,1780E-3,5C000000,-0724,0827,12362,027.4,045.4,0.478,736.3,01.18,0.508
2014-10-28 00:44:00,1829E-3,5C000000,-0724,0826,12200,027.4,045.4,0.478,736.3,01.18,0.508
2014-10-28 00:45:00,1822E-3,5C000000,-0724,0826,12144,027.4,045.4,0.478,736.4,01.18,0.508
2014-10-28 00:46:00,1719E-3,5C000000,-0724,0827,12335,027.4,045.4,0.478,736.4,01.18,0.508
2014-10-28 00:47:00,1784E-3,5C000000,-0724,0825,12133,027.4,045.4,0.478,736.4,01.18,0.508
2014-10-28 00:48:00,1717E-3,5C000000,-0724,0826,12144,027.4,045.4,0.478,736.4,01.18,0.508
2014-10-28 00:49:00,1675E-3,5C000000,-0724,0826,12159,027.5,045.4,0.478,736.4,01.18,0.508
2014-10-28 00:50:00,1817E-3,5C000000,-0724,0826,12205,027.6,045.4,0.478,736.4,01.18,0.508
2014-10-28 00:51:00,1871E-3,5C000000,-0724,0826,12119,027.7,045.4,0.478,736.4,01.18,0.508
2014-10-28 00:52:00,1646E-3,5C000000,-0724,0826,12340,027.7,045.4,0.478,736.4,01.18,0.508
2014-10-28 00:53:00,1827E-3,5C000000,-0724,0826,12144,027.8,045.4,0.478,736.4,01.18,0.508
2014-10-28 00:54:00,1738E-3,5C000000,-0724,0826,12209,027.8,045.4,0.477,736.3,01.18,0.508
2014-10-28 00:55:00,1835E-3,5C000000,-0724,0826,12275,027.9,045.4,0.478,736.3,01.18,0.508
2014-10-28 00:56:00,1824E-3,5C000000,-0724,0826,12141,027.9,045.4,0.477,736.3,01.18,0.508
2014-10-28 00:57:00,1856E-3,5C000000,-0724,0826,12212,028.0,045.4,0.478,736.3,01.18,0.508
2014-10-28 00:58:00,1853E-3,5C000000,-0724,0827,12317,028.1,045.4,0.477,736.3,01.18,0.508
2014-10-28 00:59:00,1851E-3,5C000000,-0724,0826,12233,028.1,045.4,0.477,736.3,01.18,0.508
2014-10-28 01:00:00,1824E-3,5C000000,-0724,0826,12206,028.2,045.4,0.477,736.3,01.18,0.508
2014-10-28 01:01:00,1831E-3,5C000000,-0724,0825,12351,028.2,045.4,0.477,736.3,01.18,0.508
2014-10-28 01:02:00,1799E-3,5C000000,-0724,0827,12089,028.3,045.5,0.477,736.2,01.18,0.508
2014-10-28 01:03:00,1765E-3,5C000000,-0724,0825,12119,028.3,045.5,0.477,736.2,01.18,0.508
2014-10-28 01:04:00,1818E-3,5C000000,-0724,0826,12443,028.3,045.5,0.476,736.1,01.18,0.508
2014-10-28 01:05:00,1810E-3,5C000000,-0724,0826,12147,028.3,045.4,0.477,736.1,01.18,0.508
2014-10-28 01:06:00,1693E-3,5C000000,-0724,0826,12369,028.2,045.5,0.477,736.0,01.18,0.508
2014-10-28 01:07:00,1892E-3,5C000000,-0724,0827,12284,028.2,045.5,0.477,736.1,01.18,0.508
2014-10-28 01:08:00,1744E-3,5C000000,-0724,0827,12026,028.1,045.4,0.477,736.0,01.18,0.508
2014-10-28 01:09:00,1860E-3,5C000000,-0724,0826,12412,028.0,045.4,0.476,736.0,01.18,0.508
2014-10-28 01:10:00,1855E-3,5C000000,-0724,0826,12102,027.9,045.4,0.476,736.1,01.18,0.508
2014-10-28 01:11:00,1822E-3,5C000000,-0724,0828,12193,027.8,045.4,0.476,736.0,01.18,0.508
2014-10-28 01:12:00,1760E-3,5C000000,-0724,0828,12272,027.8,045.4,0.477,736.0,01.18,0.508
2014-10-28 01:13:00,1777E-3,5C000000,-0724,0826,12315,027.7,045.4,0.477,736.0,01.18,0.508
2014-10-28 01:14:00,1716E-3,5C000000,-0724,0825,12089,027.7,045.4,0.477,736.0,01.18,0.508
2014-10-28 01:15:00,1774E-3,5C000000,-0724,0825,12260,027.7,045.4,0.477,735.9,01.18,0.508
2014-10-28 01:16:00,1744E-3,5C000000,-0724,0826,12285,027.7,045.4,0.478,735.9,01.18,0.508
2014-10-28 01:17:00,1785E-3,5C000000,-0724,0826,12215,027.8,045.4,0.478,735.9,01.18,0.508
2014-10-28 01:18:00,1894E-3,5C000000,-0724,0825,12155,027.9,045.4,0.478,735.9,01.18,0.508
2014-10-28 01:19:00,1818E-3,5C000000,-0724,0826,12309,027.9,045.4,0.477,735.9,01.18,0.508
2014-10-28 01:20:00,1637E-3,5C000000,-0724,0826,12335,028.0,045.4,0.477,735.8,01.18,0.508
2014-10-28 01:21:00,1747E-3,5C000000,-0724,0825,12195,028.0,045.5,0.477,735.8,01.18,0.508
2014-10-28 01:22:00,1901E-3,5C000000,-0724,0826,12349,028.1,045.5,0.477,735.8,01.18,0.508
2014-10-28 01:23:00,1756E-3,5C000000,-0724,0826,12201,028.1,045.4,0.477,735.8,01.18,0.508
2014-10-28 01:24:00,1697E-3,5C000000,-0724,0825,12389,028.1,045.4,0.477,735.8,01.18,0.508
2014-10-28 01:25:00,1809E-3,5C000000,-0724,0825,12225,028.2,045.4,0.477,735.8,01.18,0.508
2014-10-28 01:26:00,1774E-3,5C000000,-0724,0825,12093,028.2,045.4,0.476,735.8,01.18,0.508
2014-10-28 01:27:00,1755E-3,5C000000,-0724,0825,12387,028.3,045.4,0.477,735.8,01.18,0.508
2014-10-28 01:28:00,1814E-3,5C000000,-0724,0825,12229,028.3,045.4,0.477,735.8,01.18,0.508
2014-10-28 01:29:00,1792E-3,5C000000,-0724,0827,12212,028.3,045.4,0.476,735.7,01.18,0.508
2014-10-28 01:30:00,1779E-3,5C000000,-0724,0827,12454,028.3,045.5,0.476,735.7,01.18,0.508
2014-10-28 01:31:00,1784E-3,5C000000,-0724,0826,12282,028.2,045.5,0.476,735.7,01.18,0.508
2014-10-28 01:32:00,1806E-3,5C000000,-0724,0827,12097,028.1,045.4,0.476,735.8,01.18,0.508
2014-10-28 01:33:00,1672E-3,5C000000,-0724,0828,12284,028.0,045.4,0.477,735.7,01.18,0.508
2014-10-28 01:34:00,1786E-3,5C000000,-0724,0827,12309,027.9,045.5,0.477,735.7,01.18,0.508
2014-10-28 01:35:00,1812E-3,5C000000,-0724,0828,12188,027.9,045.5,0.477,735.7,01.18,0.508
2014-10-28 01:36:00,1849E-3,5C000000,-0724,0828,12212,027.8,045.4,0.477,735.6,01.18,0.508
2014-10-28 01:37:00,1748E-3,5C000000,-0724,0827,12287,027.8,045.4,0.477,735.5,01.18,0.508
2014-10-28 01:38:00,1634E-3,5C000000,-0724,0826,12241,027.8,045.5,0.477,735.5,01.18,0.508
2014-10-28 01:39:00,1782E-3,5C000000,-0724,0827,12398,027.7,045.5,0.477,735.6,01.18,0.508
2014-10-28 01:40:00,1855E-3,5C000000,-0724,0827,12202,027.7,045.4,0.477,735.6,01.18,0.508
2014-10-28 01:41:00,1835E-3,5C000000,-0724,0826,12286,027.7,045.4,0.477,735.6,01.18,0.508
2014-10-28 01:42:00,1717E-3,5C000000,-0724,0826,12430,027.7,045.4,0.477,735.6,01.18,0.508
2014-10-28 01:43:00,1866E-3,5C000000,-0724,0826,12183,027.6,045.4,0.477,735.6,01.18,0.508
2014-10-28 01:44:00,1813E-3,5C000000,-0724,0826,12190,027.6,045.5,0.477,735.5,01.18,0.508
2014-10-28 01:45:00,1703E-3,5C000000,-0724,0827,12274,027.6,045.4,0.478,735.5,01.18,0.508
2014-10-28 01:46:00,1725E-3,5C000000,-0724,0826,12293,027.6,045.4,0.478,735.5,01.18,0.508
2014-10-28 01:47:00,1831E-3,5C000000,-0724,0827,12167,027.5,045.4,0.477,735.5,01.18,0.508
2014-10-28 01:48:00,1667E-3,5C000000,-0724,0827,12276,027.5,045.4,0.477,735.4,01.18,0.508
2014-10-28 01:49:00,1824E-3,5C000000,-0724,0828,12215,027.5,045.4,0.477,735.4,01.18,0.508
2014-10-28 01:50:00,1734E-3,5C000000,-0724,0828,12082,027.5,045.4,0.478,735.5,01.18,0.508
2014-10-28 01:51:00,1797E-3,5C000000,-0724,0825,12323,027.5,045.4,0.478,735.4,01.18,0.508
2014-10-28 01:52:00,1755E-3,5C000000,-0724,0826,12294,027.5,045.4,0.478,735.4,01.18,0.508
2014-10-28 01:53:00,1785E-3,5C000000,-0724,0824,12143,027.5,045.4,0.478,735.4,01.18,0.508
2014-10-28 01:54:00,1787E-3,5C000000,-0724,0826,12212,027.6,045.4,0.477,735.3,01.18,0.508
2014-10-28 01:55:00,1879E-3,5C000000,-0724,0826,12230,027.6,045.4,0.478,735.3,01.18,0.508
2014-10-28 01:56:00,1852E-3,5C000000,-0724,0826,12245,027.7,045.4,0.478,735.3,01.18,0.508
2014-10-28 01:57:00,1830E-3,5C000000,-0724,0826,12273,027.8,045.5,0.477,735.2,01.18,0.508
2014-10-28 01:58:00,1685E-3,5C000000,-0724,0826,12436,027.8,045.5,0.477,735.1,01.18,0.508
2014-10-28 01:59:00,1827E-3,5C000000,-0724,0827,12171,027.9,045.4,0.477,735.1,01.18,0.508
2014-10-28 02:00:00,1783E-3,5C000000,-0724,0826,12221,027.9,045.4,0.477,735.0,01.18,0.508
2014-10-28 02:01:00,1858E-3,5C000000,-0724,0826,12155,028.0,045.4,0.477,735.0,01.18,0.508
2014-10-28 02:02:00,1735E-3,5C000000,-0724,0826,12252,028.0,045.5,0.477,734.9,01.18,0.508
2014-10-28 02:03:00,1785E-3,5C000000,-0724,0826,12282,027.9,045.5,0.477,735.1,01.18,0.508
2014-10-28 02:04:00,1809E-3,5C000000,-0724,0826,12429,027.8,045.4,0.477,735.1,01.18,0.508
2014-10-28 02:05:00,1721E-3,5C000000,-0724,0826,12504,027.8,045.4,0.476,735.1,01.18,0.508
2014-10-28 02:06:00,1799E-3,5C000000,-0724,0826,12366,027.7,045.4,0.477,735.1,01.18,0.508
2014-10-28 02:07:00,1796E-3,5C000000,-0724,0827,12267,027.7,045.4,0.477,735.1,01.18,0.508
2014-10-28 02:08:00,1765E-3,5C000000,-0724,0827,12132,027.6,045.4,0.477,735.0,01.18,0.508
2014-10-28 02:09:00,1757E-3,5C000000,-0724,0826,12163,027.6,045.4,0.477,735.0,01.18,0.508
2014-10-28 02:10:00,1862E-3,5C000000,-0724,0826,12178,027.6,045.4,0.477,735.0,01.18,0.508
2014-10-28 02:11:00,1729E-3,5C000000,-0724,0827,12201,027.6,045.4,0.477,735.0,01.18,0.508
2014-10-28 02:12:00,1782E-3,5C000000,-0724,0827,11960,027.6,045.4,0.477,735.1,01.18,0.508
2014-10-28 02:13:00,1743E-3,5C000000,-0724,0827,12172,027.6,045.4,0.477,735.1,01.18,0.508
2014-10-28 02:14:00,1868E-3,5C000000,-0724,0828,12330,027.6,045.4,0.478,735.1,01.18,0.508
2014-10-28 02:15:00,1666E-3,5C000000,-0724,0827,12298,027.6,045.4,0.477,735.0,01.18,0.508
2014-10-28 02:16:00,1872E-3,5C000000,-0724,0827,11940,027.6,045.4,0.477,735.0,01.18,0.508
2014-10-28 02:17:00,1818E-3,5C000000,-0724,0827,12315,027.6,045.4,0.477,735.0,01.18,0.508
2014-10-28 02:18:00,1741E-3,5C000000,-0724,0826,12310,027.6,045.4,0.478,735.0,01.18,0.508
2014-10-28 02:19:00,1687E-3,5C000000,-0724,0825,12047,027.6,045.4,0.477,735.0,01.18,0.508
2014-10-28 02:20:00,1879E-3,5C000000,-0724,0825,12283,027.6,045.4,0.477,734.9,01.18,0.508
2014-10-28 02:21:00,1764E-3,5C000000,-0724,0826,12316,027.6,045.4,0.478,734.9,01.18,0.508
2014-10-28 02:22:00,1799E-3,5C000000,-0724,0827,12293,027.6,045.4,0.477,734.9,01.18,0.508
2014-10-28 02:23:00,1893E-3,5C000000,-0724,0828,12329,027.5,045.4,0.477,735.0,01.18,0.508
2014-10-28 02:24:00,1763E-3,5C000000,-0724,0827,12177,027.5,045.4,0.477,735.0,01.18,0.508
2014-10-28 02:25:00,1774E-3,5C000000,-0724,0827,12373,027.5,045.5,0.477,735.0,01.18,0.508
2014-10-28 02:26:00,1878E-3,5C000000,-0724,0827,12238,027.5,045.4,0.477,734.9,01.18,0.508
2014-10-28 02:27:00,1585E-3,5C000000,-0724,0828,12395,027.5,045.4,0.478,735.0,01.18,0.508
2014-10-28 02:28:00,1671E-3,5C000000,-0724,0828,12302,027.5,045.4,0.478,735.0,01.18,0.508
2014-10-28 02:29:00,1843E-3,5C000000,-0724,0825,12311,027.5,045.4,0.477,734.9,01.18,0.508
2014-10-28 02:30:00,1793E-3,5C000000,-0724,0825,12360,027.5,045.5,0.478,734.9,01.18,0.508
2014-10-28 02:31:00,1757E-3,5C000000,-0724,0827,12383,027.4,045.4,0.478,734.9,01.18,0.508
2014-10-28 02:32:00,1733E-3,5C000000,-0724,0826,12271,027.5,045.4,0.477,734.9,01.18,0.508
2014-10-28 02:33:00,1642E-3,5C000000,-0724,0828,12267,027.4,045.4,0.478,734.8,01.18,0.508
2014-10-28 02:34:00,1787E-3,5C000000,-0724,0827,12035,027.4,045.4,0.478,734.8,01.18,0.508
2014-10-28 02:35:00,1799E-3,5C000000,-0724,0827,12215,027.4,045.4,0.477,734.8,01.18,0.508
2014-10-28 02:36:00,1599E-3,5C000000,-0724,0828,12288,027.4,045.4,0.478,734.8,01.18,0.508
2014-10-28 02:37:00,1739E-3,5C000000,-0724,0828,12261,027.4,045.4,0.477,734.8,01.18,0.508
2014-10-28 02:38:00,1770E-3,5C000000,-0724,0828,12297,027.4,045.4,0.477,734.7,01.18,0.508
2014-10-28 02:39:00,1721E-3,5C000000,-0724,0826,12223,027.4,045.4,0.478,734.7,01.18,0.508
2014-10-28 02:40:00,1851E-3,5C000000,-0724,0828,12273,027.3,045.4,0.477,734.8,01.18,0.508
2014-10-28 02:41:00,1805E-3,5C000000,-0724,0828,12270,027.3,045.4,0.477,734.7,01.18,0.508
2014-10-28 02:42:00,1850E-3,5C000000,-0724,0826,12259,027.3,045.4,0.478,734.7,01.18,0.508
2014-10-28 02:43:00,1724E-3,5C000000,-0724,0825,12167,027.3,045.4,0.477,734.7,01.18,0.508
2014-10-28 02:44:00,1718E-3,5C000000,-0724,0827,12340,027.3,045.4,0.478,734.7,01.18,0.508
2014-10-28 02:45:00,1835E-3,5C000000,-0724,0828,12139,027.3,045.4,0.478,734.7,01.18,0.508
2014-10-28 02:46:00,1759E-3,5C000000,-0724,0828,12294,027.3,045.4,0.477,734.7,01.18,0.508
2014-10-28 02:47:00,1729E-3,5C000000,-0724,0828,12255,027.3,045.4,0.478,734.7,01.18,0.508
2014-10-28 02:48:00,1822E-3,5C000000,-0724,0826,12259,027.2,045.4,0.477,734.6,01.18,0.508
2014-10-28 02:49:00,1978E-3,5C000000,-0724,0827,12151,027.2,045.4,0.478,734.6,01.18,0.508
2014-10-28 02:50:00,1819E-3,5C000000,-0724,0827,12272,027.2,045.4,0.478,734.5,01.18,0.508
2014-10-28 02:51:00,1817E-3,5C000000,-0724,0826,12143,027.2,045.4,0.477,734.5,01.18,0.508
2014-10-28 02:52:00,1906E-3,5C000000,-0724,0826,12309,027.3,045.4,0.478,734.5,01.18,0.508
2014-10-28 02:53:00,1731E-3,5C000000,-0724,0828,12113,027.2,045.4,0.477,734.4,01.18,0.508
2014-10-28 02:54:00,1677E-3,5C000000,-0724,0827,12314,027.3,045.4,0.477,734.4,01.18,0.508
2014-10-28 02:55:00,1641E-3,5C000000,-0724,0827,12175,027.2,045.4,0.478,734.4,01.18,0.508
2014-10-28 02:56:00,1780E-3,5C000000,-0724,0826,12265,027.3,045.4,0.477,734.3,01.18,0.508
2014-10-28 02:57:00,1812E-3,5C000000,-0724,0826,12420,027.2,045.4,0.478,734.4,01.18,0.508
2014-10-28 02:58:00,1831E-3,5C000000,-0724,0827,12151,027.2,045.4,0.477,734.3,01.18,0.508
2014-10-28 02:59:00,1826E-3,5C000000,-0724,0827,12170,027.3,045.4,0.477,734.3,01.18,0.508
2014-10-28 03:00:00,1890E-3,5C000000,-0724,0826,12179,027.2,045.4,0.478,734.3,01.18,0.508
2014-10-28 03:01:00,1838E-3,5C000000,-0724,0826,12324,027.2,045.4,0.477,734.3,01.18,0.508
2014-10-28 03:02:00,1813E-3,5C000000,-0724,0826,12189,027.2,045.4,0.478,734.2,01.18,0.508
2014-10-28 03:03:00,1679E-3,5C000000,-0724,0827,12215,027.2,045.4,0.477,734.2,01.18,0.508
2014-10-28 03:04:00,1786E-3,5C000000,-0724,0828,12384,027.2,045.4,0.478,734.1,01.19,0.508
2014-10-28 03:05:00,1998E-3,5C000000,-0724,0825,12101,027.2,045.4,0.478,734.1,01.19,0.508
2014-10-28 03:06:00,1834E-3,5C000000,-0724,0827,12289,027.2,045.4,0.477,734.1,01.19,0.508
2014-10-28 03:07:00,1858E-3,5C000000,-0724,0826,12029,027.2,045.4,0.478,734.2,01.18,0.508
2014-10-28 03:08:00,1707E-3,5C000000,-0724,0827,12390,027.2,045.4,0.477,734.1,01.19,0.508
2014-10-28 03:09:00,1882E-3,5C000000,-0724,0826,12192,027.2,045.4,0.478,734.1,01.19,0.508
2014-10-28 03:10:00,1755E-3,5C000000,-0724,0827,12175,027.2,045.4,0.477,734.2,01.18,0.508
2014-10-28 03:11:00,1903E-3,5C000000,-0724,0827,12166,027.2,045.4,0.478,734.1,01.19,0.508
2014-10-28 03:12:00,1747E-3,5C000000,-0724,0827,12217,027.2,045.4,0.477,734.1,01.19,0.508
2014-10-28 03:13:00,1806E-3,5C000000,-0724,0826,12251,027.2,045.4,0.478,734.1,01.19,0.508
2014-10-28 03:14:00,1661E-3,5C000000,-0724,0826,12137,027.2,045.4,0.477,734.1,01.19,0.508
2014-10-28 03:15:00,1774E-3,5C000000,-0724,0827,12195,027.2,045.4,0.478,734.0,01.19,0.508
2014-10-28 03:16:00,1830E-3,5C000000,-0724,0826,12191,027.2,045.4,0.477,734.1,01.19,0.508
2014-10-28 03:17:00,1852E-3,5C000000,-0724,0828,12264,027.2,045.4,0.478,734.0,01.19,0.508
2014-10-28 03:18:00,1746E-3,5C000000,-0724,0827,12060,027.2,045.4,0.478,734.0,01.19,0.508
2014-10-28 03:19:00,1919E-3,5C000000,-0724,0828,12334,027.2,045.4,0.477,734.0,01.19,0.508
2014-10-28 03:20:00,1730E-3,5C000000,-0724,0827,12203,027.2,045.4,0.478,734.0,01.19,0.508
2014-10-28 03:21:00,1793E-3,5C000000,-0724,0825,12132,027.2,045.4,0.477,734.0,01.19,0.508
2014-10-28 03:22:00,1792E-3,5C000000,-0724,0826,12141,027.2,045.4,0.478,734.0,01.19,0.508
2014-10-28 03:23:00,1884E-3,5C000000,-0724,0826,12266,027.1,045.4,0.477,734.0,01.19,0.508
2014-10-28 03:24:00,1739E-3,5C000000,-0724,0825,12113,027.2,045.4,0.478,733.9,01.19,0.508
2014-10-28 03:25:00,1687E-3,5C000000,-0724,0826,12237,027.1,045.4,0.477,733.9,01.19,0.508
2014-10-28 03:26:00,1885E-3,5C000000,-0724,0825,12480,027.1,045.4,0.478,733.9,01.19,0.508
2014-10-28 03:27:00,1731E-3,5C000000,-0724,0827,12245,027.1,045.4,0.477,733.9,01.19,0.508
2014-10-28 03:28:00,1906E-3,5C000000,-0724,0826,11891,027.2,045.4,0.478,733.8,01.19,0.508
2014-10-28 03:29:00,1717E-3,5C000000,-0724,0827,12472,027.1,045.4,0.477,733.8,01.19,0.508
2014-10-28 03:30:00,1713E-3,5C000000,-0724,0826,12225,027.2,045.4,0.478,733.8,01.19,0.508
2014-10-28 03:31:00,1669E-3,5C000000,-0724,0826,12157,027.1,045.4,0.477,733.8,01.19,0.508
2014-10-28 03:32:00,1691E-3,5C000000,-0724,0826,12134,027.1,045.4,0.478,733.8,01.19,0.508
2014-10-28 03:33:00,1645E-3,5C000000,-0724,0826,12289,027.1,045.4,0.477,733.8,01.19,0.508
2014-10-28 03:34:00,1925E-3,5C000000,-0724,0826,12101,027.1,045.4,0.478,733.8,01.19,0.508
2014-10-28 03:35:00,1775E-3,5C000000,-0724,0826,12194,027.1,045.4,0.477,733.8,01.19,0.508
2014-10-28 03:36:00,1844E-3,5C000000,-0724,0826,12229,027.1,045.4,0.478,733.8,01.19,0.508
2014-10-28 03:37:00,1779E-3,5C000000,-0724,0825,12141,027.1,045.4,0.477,733.8,01.19,0.508
2014-10-28 03:38:00,1790E-3,5C000000,-0724,0826,12201,027.1,045.4,0.478,733.8,01.19,0.508
2014-10-28 03:39:00,1796E-3,5C000000,-0724,0827,12034,027.1,045.4,0.477,733.7,01.19,0.508
2014-10-28 03:40:00,1880E-3,5C000000,-0724,0827,12279,027.1,045.4,0.478,733.8,01.19,0.508
2014-10-28 03:41:00,1822E-3,5C000000,-0724,0828,12214,027.1,045.4,0.477,733.7,01.19,0.508
2014-10-28 03:42:00,1808E-3,5C000000,-0724,0828,12267,027.1,045.4,0.478,733.7,01.19,0.508
2014-10-28 03:43:00,1775E-3,5C000000,-0724,0828,12239,027.1,045.4,0.477,733.7,01.19,0.508
2014-10-28 03:44:00,1894E-3,5C000000,-0724,0828,12170,027.1,045.4,0.478,733.7,01.19,0.508
2014-10-28 03:45:00,1676E-3,5C000000,-0724,0828,12337,027.0,045.4,0.478,733.6,01.19,0.508
2014-10-28 03:46:00,1723E-3,5C000000,-0724,0828,12431,027.1,045.4,0.477,733.5,01.19,0.508
2014-10-28 03:47:00,1838E-3,5C000000,-0724,0828,12183,027.0,045.4,0.478,733.5,01.19,0.508
2014-10-28 03:48:00,1757E-3,5C000000,-0724,0828,12361,027.0,045.4,0.477,733.5,01.19,0.508
2014-10-28 03:49:00,1807E-3,5C000000,-0724,0828,12179,027.1,045.4,0.478,733.5,01.19,0.508
2014-10-28 03:50:00,1813E-3,5C000000,-0724,0827,12281,027.0,045.4,0.477,733.4,01.19,0.508
2014-10-28 03:51:00,1804E-3,5C000000,-0724,0827,12234,027.0,045.4,0.477,733.4,01.19,0.508
2014-10-28 03:52:00,1754E-3,5C000000,-0724,0826,12191,027.0,045.4,0.478,733.4,01.19,0.508
2014-10-28 03:53:00,1771E-3,5C000000,-0724,0826,12336,027.0,045.4,0.477,733.4,01.19,0.508
2014-10-28 03:54:00,1746E-3,5C000000,-0724,0827,12278,027.0,045.4,0.478,733.3,01.19,0.508
2014-10-28 03:55:00,1771E-3,5C000000,-0724,0826,12339,027.0,045.4,0.477,733.3,01.19,0.508
2014-10-28 03:56:00,1777E-3,5C000000,-0724,0827,12244,027.0,045.4,0.477,733.3,01.19,0.508
2014-10-28 03:57:00,1816E-3,5C000000,-0724,0826,12287,027.0,045.4,0.478,733.3,01.19,0.508
2014-10-28 03:58:00,1649E-3,5C000000,-0724,0826,12098,027.0,045.4,0.477,733.3,01.19,0.508
2014-10-28 03:59:00,1771E-3,5C000000,-0724,0826,12066,027.0,045.5,0.478,733.2,01.19,0.508
2014-10-28 04:00:00,1698E-3,5C000000,-0724,0825,12179,027.0,045.4,0.477,733.2,01.19,0.508
2014-10-28 04:01:00,1745E-3,5C000000,-0724,0826,12105,027.0,045.4,0.478,733.2,01.19,0.508
2014-10-28 04:02:00,1744E-3,5C000000,-0724,0825,12294,027.0,045.4,0.478,733.2,01.19,0.508
2014-10-28 04:03:00,1848E-3,5C000000,-0724,0826,12083,027.0,045.4,0.477,733.2,01.19,0.508
2014-10-28 04:04:00,1763E-3,5C000000,-0724,0826,12164,027.0,045.4,0.478,733.2,01.19,0.508
2014-10-28 04:05:00,1817E-3,5C000000,-0724,0826,12043,027.0,045.4,0.477,733.2,01.19,0.508
2014-10-28 04:06:00,1741E-3,5C000000,-0724,0827,12163,027.1,045.4,0.478,733.1,01.19,0.508
2014-10-28 04:07:00,1892E-3,5C000000,-0724,0826,12403,027.0,045.4,0.477,733.0,01.19,0.508
2014-10-28 04:08:00,1855E-3,5C000000,-0724,0825,12150,027.1,045.4,0.477,733.0,01.19,0.508
2014-10-28 04:09:00,1910E-3,5C000000,-0724,0826,12154,027.0,045.4,0.477,733.0,01.19,0.508
2014-10-28 04:10:00,1767E-3,5C000000,-0724,0828,12105,027.0,045.4,0.477,733.0,01.19,0.508
2014-10-28 04:11:00,1718E-3,5C000000,-0724,0826,12131,027.1,045.4,0.478,733.0,01.19,0.508
2014-10-28 04:12:00,1719E-3,5C000000,-0724,0827,12197,027.0,045.4,0.477,732.9,01.19,0.508
2014-10-28 04:13:00,1857E-3,5C000000,-0724,0828,12085,027.0,045.4,0.478,732.8,01.19,0.508
2014-10-28 04:14:00,1916E-3,5C000000,-0724,0827,12218,027.0,045.4,0.477,732.8,01.19,0.508
2014-10-28 04:15:00,1818E-3,5C000000,-0724,0826,12195,027.0,045.4,0.477,732.8,01.19,0.508
2014-10-28 04:16:00,1810E-3,5C000000,-0724,0826,12156,027.0,045.4,0.477,732.8,01.19,0.508
2014-10-28 04:17:00,1825E-3,5C000000,-0724,0826,12333,027.0,045.4,0.477,732.8,01.19,0.508
2014-10-28 04:18:00,1662E-3,5C000000,-0724,0827,12286,027.0,045.4,0.477,732.6,01.19,0.508
2014-10-28 04:19:00,1732E-3,5C000000,-0724,0827,12272,027.0,045.4,0.477,732.5,01.19,0.508
2014-10-28 04:20:00,1818E-3,5C000000,-0724,0826,12306,027.1,045.4,0.478,732.7,01.19,0.508